CDT,Max TemperatureF,Mean TemperatureF,Min TemperatureF,Max Dew PointF,MeanDew PointF,Min DewpointF,Max Humidity, Mean Humidity, Min Humidity, Max Sea Level PressureIn, Mean Sea Level PressureIn, Min Sea Level PressureIn, Max VisibilityMiles, Mean VisibilityMiles, Min VisibilityMiles, Max Wind SpeedMPH, Mean Wind SpeedMPH, Max Gust SpeedMPH,PrecipitationIn, CloudCover, Events, WindDirDegrees
2013-10-1,72,60,49,54,44,32,80,54,25,29.96,29.77,29.65,10,10,10,14,8,24,0.00,0,,227
2013-10-2,71,53,35,49,37,30,97,58,22,30.09,30.02,29.95,10,10,7,7,2,,0.06,2,Rain-Thunderstorm,155
2013-10-3,60,54,49,54,51,47,97,89,74,30.01,29.94,29.89,10,9,4,13,5,22,0.89,7,Rain-Thunderstorm,62
2013-10-4,56,53,50,53,51,50,97,92,81,30.06,30.03,29.96,10,9,2,13,8,20,0.18,8,Rain,61
2013-10-5,57,54,52,56,53,50,99,96,94,30.01,29.87,29.73,10,8,2,13,8,20,1.06,8,Rain-Thunderstorm,93
2013-10-6,57,51,45,52,46,42,99,87,61,29.74,29.69,29.65,10,9,3,10,4,,0.12,7,Rain,261
2013-10-7,59,48,38,44,41,37,100,82,45,30.02,29.87,29.75,10,9,2,12,3,16,0.00,4,,294
2013-10-8,71,53,35,45,41,35,99,62,35,30.05,30.00,29.94,10,10,10,22,6,30,0.00,0,,179
2013-10-9,70,60,49,50,46,43,84,62,45,30.11,30.08,30.00,10,10,10,18,9,24,0.00,0,,190
2013-10-10,69,54,40,46,44,39,98,70,39,30.13,30.08,30.01,10,10,7,13,3,17,0.00,0,,151
2013-10-11,71,58,46,54,50,44,93,73,51,30.02,29.94,29.81,10,10,7,22,6,30,0.00,2,,139
2013-10-12,61,54,46,53,45,38,83,69,54,30.08,29.89,29.78,10,10,10,18,12,28,0.00,5,,215
2013-10-13,55,44,32,42,35,28,95,71,37,30.40,30.30,30.09,10,10,10,9,4,16,0.00,4,,286
2013-10-14,55,42,30,41,34,29,99,72,46,30.43,30.32,30.13,10,10,10,13,2,17,0.00,1,,110
2013-10-15,52,48,44,51,46,39,98,93,75,30.12,29.82,29.68,10,8,3,15,9,24,1.00,8,Rain,146
2013-10-16,46,38,31,46,39,31,100,92,82,29.89,29.83,29.70,10,9,2,15,5,20,0.06,6,Rain,341
2013-10-17,53,41,30,42,35,30,100,85,52,29.88,29.80,29.75,10,8,0,8,1,,0.01,5,Fog-Rain,252
2013-10-18,42,37,32,42,37,32,100,93,72,29.87,29.82,29.74,10,9,3,13,3,18,0.20,7,Rain,340
2013-10-19,43,36,30,37,33,30,100,89,72,29.82,29.71,29.63,10,10,7,13,3,16,0.02,6,Rain,222
2013-10-20,40,34,28,35,31,28,100,96,71,29.77,29.71,29.65,10,5,0,13,2,17,0.22,7,Fog-Rain-Snow,145
2013-10-21,32,30,29,32,27,21,100,84,65,29.81,29.78,29.69,10,9,3,14,7,23,0.00,8,Snow,270
2013-10-22,36,32,29,30,27,24,92,79,66,29.96,29.90,29.79,10,10,5,10,6,17,0.00,8,Snow,309
2013-10-23,36,30,25,28,23,19,89,76,59,29.98,29.93,29.90,10,10,5,10,3,16,0.00,7,Snow,290
2013-10-24,38,34,29,28,25,23,86,74,56,30.22,30.10,29.97,10,10,10,12,5,17,0.00,8,,299
2013-10-25,49,38,28,37,28,24,88,70,53,30.24,30.02,29.66,10,10,10,18,5,25,0.00,5,,223
2013-10-26,47,42,34,36,31,27,95,73,58,30.01,29.86,29.65,10,10,5,16,7,28,0.02,8,Rain-Snow,314
2013-10-27,50,40,29,32,29,26,88,72,47,30.13,29.90,29.77,10,10,10,16,7,24,0.00,5,,254
2013-10-28,37,30,24,31,20,17,90,66,45,30.44,30.36,30.14,10,10,5,18,10,23,0.00,2,Snow,47
2013-10-29,35,28,23,34,26,18,97,83,69,30.42,30.29,30.12,10,9,1,9,3,,0.00,6,Rain-Snow,112
2013-10-30,48,42,35,48,41,34,100,98,97,30.12,29.95,29.70,5,2,1,8,2,,0.04,8,Rain,141
2013-10-31,52,47,42,51,48,42,100,99,95,29.68,29.42,29.25,10,3,0,7,2,,0.17,8,Fog-Rain,287